Year,Month,Day,Hour,Minute,Value (Times are PST for temperature in C)
2016,09,15,00,00,13.70
2016,09,15,00,01,13.70
2016,09,15,00,02,13.70
2016,09,15,00,03,13.70
2016,09,15,00,04,13.60
2016,09,15,00,05,13.60
2016,09,15,00,06,13.60
2016,09,15,00,07,13.60
2016,09,15,00,08,13.60
2016,09,15,00,09,13.60
2016,09,15,00,10,13.60
2016,09,15,00,11,13.60
2016,09,15,00,12,13.50
2016,09,15,00,13,13.50
2016,09,15,00,14,13.50
2016,09,15,00,15,13.50
2016,09,15,00,16,13.50
2016,09,15,00,17,13.50
2016,09,15,00,18,13.50
2016,09,15,00,19,13.50
2016,09,15,00,20,13.50
2016,09,15,00,21,13.50
2016,09,15,00,22,13.50
2016,09,15,00,23,13.50
2016,09,15,00,24,13.50
2016,09,15,00,25,13.50
2016,09,15,00,26,13.50
2016,09,15,00,27,13.50
2016,09,15,00,28,13.50
2016,09,15,00,29,13.50
2016,09,15,00,30,13.50
2016,09,15,00,31,13.50
2016,09,15,00,32,13.50
2016,09,15,00,33,13.50
2016,09,15,00,34,13.50
2016,09,15,00,35,13.50
2016,09,15,00,36,13.50
2016,09,15,00,37,13.50
2016,09,15,00,38,13.50
2016,09,15,00,39,13.50
2016,09,15,00,40,13.40
2016,09,15,00,41,13.40
2016,09,15,00,42,13.40
2016,09,15,00,43,13.40
2016,09,15,00,44,13.40
2016,09,15,00,45,13.40
2016,09,15,00,46,13.40
2016,09,15,00,47,13.40
2016,09,15,00,48,13.40
2016,09,15,00,49,13.40
2016,09,15,00,50,13.40
2016,09,15,00,51,13.40
2016,09,15,00,52,13.40
2016,09,15,00,53,13.40
2016,09,15,00,54,13.30
2016,09,15,00,55,13.30
2016,09,15,00,56,13.30
2016,09,15,00,57,13.30
2016,09,15,00,58,13.30
2016,09,15,00,59,13.30
2016,09,15,01,00,13.30
2016,09,15,01,01,13.30
2016,09,15,01,02,13.30
2016,09,15,01,03,13.30
2016,09,15,01,04,13.30
2016,09,15,01,05,13.30
2016,09,15,01,06,13.30
2016,09,15,01,07,13.30
2016,09,15,01,08,13.40
2016,09,15,01,09,13.40
2016,09,15,01,10,13.40
2016,09,15,01,11,13.40
2016,09,15,01,12,13.40
2016,09,15,01,13,13.40
2016,09,15,01,14,13.40
2016,09,15,01,15,13.40
2016,09,15,01,16,13.40
2016,09,15,01,17,13.40
2016,09,15,01,18,13.40
2016,09,15,01,19,13.40
2016,09,15,01,20,13.40
2016,09,15,01,21,13.40
2016,09,15,01,22,13.40
2016,09,15,01,23,13.30
2016,09,15,01,24,13.30
2016,09,15,01,25,13.30
2016,09,15,01,26,13.30
2016,09,15,01,27,13.30
2016,09,15,01,28,13.30
2016,09,15,01,29,13.30
2016,09,15,01,30,13.30
2016,09,15,01,31,13.30
2016,09,15,01,32,13.30
2016,09,15,01,33,13.30
2016,09,15,01,34,13.30
2016,09,15,01,35,13.20
2016,09,15,01,36,13.20
2016,09,15,01,37,13.20
2016,09,15,01,38,13.20
2016,09,15,01,39,13.20
2016,09,15,01,40,13.20
2016,09,15,01,41,13.20
2016,09,15,01,42,13.20
2016,09,15,01,43,13.20
2016,09,15,01,44,13.20
2016,09,15,01,45,13.20
2016,09,15,01,46,13.20
2016,09,15,01,47,13.20
2016,09,15,01,48,13.20
2016,09,15,01,49,13.20
2016,09,15,01,50,13.20
2016,09,15,01,51,13.20
2016,09,15,01,52,13.20
2016,09,15,01,53,13.10
2016,09,15,01,54,13.10
2016,09,15,01,55,13.10
2016,09,15,01,56,13.10
2016,09,15,01,57,13.10
2016,09,15,01,58,13.10
2016,09,15,01,59,13.10
2016,09,15,02,00,13.10
2016,09,15,02,01,13.10
2016,09,15,02,02,13.10
2016,09,15,02,03,13.10
2016,09,15,02,04,13.00
2016,09,15,02,05,13.00
2016,09,15,02,06,13.00
2016,09,15,02,07,13.00
2016,09,15,02,08,12.90
2016,09,15,02,09,12.90
2016,09,15,02,10,12.90
2016,09,15,02,11,12.90
2016,09,15,02,12,12.80
2016,09,15,02,13,12.80
2016,09,15,02,14,12.80
2016,09,15,02,15,12.80
2016,09,15,02,16,12.80
2016,09,15,02,17,12.70
2016,09,15,02,18,12.70
2016,09,15,02,19,12.70
2016,09,15,02,20,12.70
2016,09,15,02,21,12.70
2016,09,15,02,22,12.70
2016,09,15,02,23,12.70
2016,09,15,02,24,12.60
2016,09,15,02,25,12.60
2016,09,15,02,26,12.60
2016,09,15,02,27,12.50
2016,09,15,02,28,12.50
2016,09,15,02,29,12.50
2016,09,15,02,30,12.40
2016,09,15,02,31,12.40
2016,09,15,02,32,12.40
2016,09,15,02,33,12.40
2016,09,15,02,34,12.40
2016,09,15,02,35,12.30
2016,09,15,02,36,12.30
2016,09,15,02,37,12.30
2016,09,15,02,38,12.30
2016,09,15,02,39,12.20
2016,09,15,02,40,12.20
2016,09,15,02,41,12.20
2016,09,15,02,42,12.20
2016,09,15,02,43,12.10
2016,09,15,02,44,12.10
2016,09,15,02,45,12.10
2016,09,15,02,46,12.10
2016,09,15,02,47,12.00
2016,09,15,02,48,12.00
2016,09,15,02,49,12.00
2016,09,15,02,50,12.00
2016,09,15,02,51,11.90
2016,09,15,02,52,11.90
2016,09,15,02,53,11.90
2016,09,15,02,54,11.90
2016,09,15,02,55,11.80
2016,09,15,02,56,11.80
2016,09,15,02,57,11.80
2016,09,15,02,58,11.80
2016,09,15,02,59,11.80
2016,09,15,03,00,11.70
2016,09,15,03,01,11.70
2016,09,15,03,02,11.70
2016,09,15,03,03,11.70
2016,09,15,03,04,11.70
2016,09,15,03,05,11.60
2016,09,15,03,06,11.60
2016,09,15,03,07,11.60
2016,09,15,03,08,11.60
2016,09,15,03,09,11.60
2016,09,15,03,10,11.50
2016,09,15,03,11,11.50
2016,09,15,03,12,11.50
2016,09,15,03,13,11.50
2016,09,15,03,14,11.50
2016,09,15,03,15,11.50
2016,09,15,03,16,11.40
2016,09,15,03,17,11.40
2016,09,15,03,18,11.40
2016,09,15,03,19,11.40
2016,09,15,03,20,11.40
2016,09,15,03,21,11.30
2016,09,15,03,22,11.30
2016,09,15,03,23,11.30
2016,09,15,03,24,11.30
2016,09,15,03,25,11.30
2016,09,15,03,26,11.30
2016,09,15,03,27,11.30
2016,09,15,03,28,11.20
2016,09,15,03,29,11.20
2016,09,15,03,30,11.20
2016,09,15,03,31,11.10
2016,09,15,03,32,11.10
2016,09,15,03,33,11.00
2016,09,15,03,34,11.00
2016,09,15,03,35,10.90
2016,09,15,03,36,10.90
2016,09,15,03,37,10.80
2016,09,15,03,38,10.80
2016,09,15,03,39,10.80
2016,09,15,03,40,10.80
2016,09,15,03,41,10.90
2016,09,15,03,42,10.90
2016,09,15,03,43,10.90
2016,09,15,03,44,10.90
2016,09,15,03,45,10.90
2016,09,15,03,46,10.90
2016,09,15,03,47,10.90
2016,09,15,03,48,10.90
2016,09,15,03,49,10.90
2016,09,15,03,50,10.80
2016,09,15,03,51,10.80
2016,09,15,03,52,10.80
2016,09,15,03,53,10.80
2016,09,15,03,54,10.80
2016,09,15,03,55,10.80
2016,09,15,03,56,10.80
2016,09,15,03,57,10.80
2016,09,15,03,58,10.70
2016,09,15,03,59,10.70
2016,09,15,04,00,10.70
2016,09,15,04,01,10.60
2016,09,15,04,02,10.60
2016,09,15,04,03,10.60
2016,09,15,04,04,10.60
2016,09,15,04,05,10.60
2016,09,15,04,06,10.60
2016,09,15,04,07,10.50
2016,09,15,04,08,10.50
2016,09,15,04,09,10.50
2016,09,15,04,10,10.50
2016,09,15,04,11,10.40
2016,09,15,04,12,10.40
2016,09,15,04,13,10.40
2016,09,15,04,14,10.40
2016,09,15,04,15,10.40
2016,09,15,04,16,10.40
2016,09,15,04,17,10.40
2016,09,15,04,18,10.40
2016,09,15,04,19,10.40
2016,09,15,04,20,10.40
2016,09,15,04,21,10.40
2016,09,15,04,22,10.40
2016,09,15,04,23,10.40
2016,09,15,04,24,10.40
2016,09,15,04,25,10.40
2016,09,15,04,26,10.30
2016,09,15,04,27,10.30
2016,09,15,04,28,10.30
2016,09,15,04,29,10.30
2016,09,15,04,30,10.30
2016,09,15,04,31,10.30
2016,09,15,04,32,10.30
2016,09,15,04,33,10.30
2016,09,15,04,34,10.30
2016,09,15,04,35,10.30
2016,09,15,04,36,10.30
2016,09,15,04,37,10.20
2016,09,15,04,38,10.20
2016,09,15,04,39,10.20
2016,09,15,04,40,10.20
2016,09,15,04,41,10.20
2016,09,15,04,42,10.20
2016,09,15,04,43,10.20
2016,09,15,04,44,10.10
2016,09,15,04,45,10.10
2016,09,15,04,46,10.10
2016,09,15,04,47,10.10
2016,09,15,04,48,10.10
2016,09,15,04,49,10.10
2016,09,15,04,50,10.10
2016,09,15,04,51,10.10
2016,09,15,04,52,10.10
2016,09,15,04,53,10.10
2016,09,15,04,54,10.10
2016,09,15,04,55,10.10
2016,09,15,04,56,10.10
2016,09,15,04,57,10.10
2016,09,15,04,58,10.10
2016,09,15,04,59,10.10
2016,09,15,05,00,10.10
2016,09,15,05,01,10.10
2016,09,15,05,02,10.10
2016,09,15,05,03,10.10
2016,09,15,05,04,10.10
2016,09,15,05,05,10.10
2016,09,15,05,06,10.00
2016,09,15,05,07,10.00
2016,09,15,05,08,10.00
2016,09,15,05,09,10.00
2016,09,15,05,10,10.00
2016,09,15,05,11,10.00
2016,09,15,05,12,10.00
2016,09,15,05,13,10.00
2016,09,15,05,14,10.00
2016,09,15,05,15,10.00
2016,09,15,05,16,10.00
2016,09,15,05,17,10.00
2016,09,15,05,18,10.00
2016,09,15,05,19,10.00
2016,09,15,05,20,10.00
2016,09,15,05,21,10.00
2016,09,15,05,22,10.00
2016,09,15,05,23,10.00
2016,09,15,05,24,10.00
2016,09,15,05,25,10.00
2016,09,15,05,26,10.00
2016,09,15,05,27,10.00
2016,09,15,05,28,9.90
2016,09,15,05,29,9.90
2016,09,15,05,30,9.90
2016,09,15,05,31,9.90
2016,09,15,05,32,9.90
2016,09,15,05,33,9.90
2016,09,15,05,34,9.80
2016,09,15,05,35,9.80
2016,09,15,05,36,9.80
2016,09,15,05,37,9.80
2016,09,15,05,38,9.80
2016,09,15,05,39,9.80
2016,09,15,05,40,9.80
2016,09,15,05,41,9.80
2016,09,15,05,42,9.80
2016,09,15,05,43,9.80
2016,09,15,05,44,9.70
2016,09,15,05,45,9.70
2016,09,15,05,46,9.70
2016,09,15,05,47,9.70
2016,09,15,05,48,9.70
2016,09,15,05,49,9.70
2016,09,15,05,50,9.70
2016,09,15,05,51,9.70
2016,09,15,05,52,9.70
2016,09,15,05,53,9.70
2016,09,15,05,54,9.70
2016,09,15,05,55,9.70
2016,09,15,05,56,9.60
2016,09,15,05,57,9.60
2016,09,15,05,58,9.60
2016,09,15,05,59,9.60
2016,09,15,06,00,9.60
2016,09,15,06,01,9.50
2016,09,15,06,02,9.50
2016,09,15,06,03,9.50
2016,09,15,06,04,9.50
2016,09,15,06,05,9.40
2016,09,15,06,06,9.40
2016,09,15,06,07,9.40
2016,09,15,06,08,9.40
2016,09,15,06,09,9.40
2016,09,15,06,10,9.40
2016,09,15,06,11,9.40
2016,09,15,06,12,9.40
2016,09,15,06,13,9.40
2016,09,15,06,14,9.40
2016,09,15,06,15,9.40
2016,09,15,06,16,9.40
2016,09,15,06,17,9.30
2016,09,15,06,18,9.30
2016,09,15,06,19,9.30
2016,09,15,06,20,9.30
2016,09,15,06,21,9.30
2016,09,15,06,22,9.30
2016,09,15,06,23,9.30
2016,09,15,06,24,9.30
2016,09,15,06,25,9.20
2016,09,15,06,26,9.20
2016,09,15,06,27,9.20
2016,09,15,06,28,9.20
2016,09,15,06,29,9.20
2016,09,15,06,30,9.20
2016,09,15,06,31,9.20
2016,09,15,06,32,9.20
2016,09,15,06,33,9.20
2016,09,15,06,34,9.20
2016,09,15,06,35,9.20
2016,09,15,06,36,9.20
2016,09,15,06,37,9.20
2016,09,15,06,38,9.20
2016,09,15,06,39,9.20
2016,09,15,06,40,9.30
2016,09,15,06,41,9.30
2016,09,15,06,42,9.30
2016,09,15,06,43,9.30
2016,09,15,06,44,9.30
2016,09,15,06,45,9.30
2016,09,15,06,46,9.30
2016,09,15,06,47,9.30
2016,09,15,06,48,9.20
2016,09,15,06,49,9.20
2016,09,15,06,50,9.20
2016,09,15,06,51,9.20
2016,09,15,06,52,9.20
2016,09,15,06,53,9.20
2016,09,15,06,54,9.20
2016,09,15,06,55,9.20
2016,09,15,06,56,9.20
2016,09,15,06,57,9.20
2016,09,15,06,58,9.20
2016,09,15,06,59,9.20
2016,09,15,07,00,9.20
2016,09,15,07,01,9.20
2016,09,15,07,02,9.20
2016,09,15,07,03,9.20
2016,09,15,07,04,9.20
2016,09,15,07,05,9.20
2016,09,15,07,06,9.20
2016,09,15,07,07,9.20
2016,09,15,07,08,9.20
2016,09,15,07,09,9.20
2016,09,15,07,10,9.20
2016,09,15,07,11,9.20
2016,09,15,07,12,9.20
2016,09,15,07,13,9.20
2016,09,15,07,14,9.20
2016,09,15,07,15,9.30
2016,09,15,07,16,9.30
2016,09,15,07,17,9.30
2016,09,15,07,18,9.30
2016,09,15,07,19,9.30
2016,09,15,07,20,9.30
2016,09,15,07,21,9.30
2016,09,15,07,22,9.40
2016,09,15,07,23,9.40
2016,09,15,07,24,9.40
2016,09,15,07,25,9.40
2016,09,15,07,26,9.40
2016,09,15,07,27,9.50
2016,09,15,07,28,9.50
2016,09,15,07,29,9.50
2016,09,15,07,30,9.50
2016,09,15,07,31,9.60
2016,09,15,07,32,9.60
2016,09,15,07,33,9.60
2016,09,15,07,34,9.60
2016,09,15,07,35,9.70
2016,09,15,07,36,9.70
2016,09,15,07,37,9.70
2016,09,15,07,38,9.70
2016,09,15,07,39,9.80
2016,09,15,07,40,9.80
2016,09,15,07,41,9.80
2016,09,15,07,42,9.80
2016,09,15,07,43,9.90
2016,09,15,07,44,9.90
2016,09,15,07,45,9.90
2016,09,15,07,46,10.00
2016,09,15,07,47,10.00
2016,09,15,07,48,10.10
2016,09,15,07,49,10.10
2016,09,15,07,50,10.20
2016,09,15,07,51,10.30
2016,09,15,07,52,10.30
2016,09,15,07,53,10.50
2016,09,15,07,54,10.60
2016,09,15,07,55,10.70
2016,09,15,07,56,10.80
2016,09,15,07,57,10.90
2016,09,15,07,58,11.00
2016,09,15,07,59,11.10
2016,09,15,08,00,11.20
2016,09,15,08,01,11.30
2016,09,15,08,02,11.40
2016,09,15,08,03,11.50
2016,09,15,08,04,11.60
2016,09,15,08,05,11.70
2016,09,15,08,06,11.80
2016,09,15,08,07,12.00
2016,09,15,08,08,12.00
2016,09,15,08,09,12.10
2016,09,15,08,10,12.20
2016,09,15,08,11,12.30
2016,09,15,08,12,12.40
2016,09,15,08,13,12.50
2016,09,15,08,14,12.60
2016,09,15,08,15,12.60
2016,09,15,08,16,12.60
2016,09,15,08,17,12.60
2016,09,15,08,18,12.70
2016,09,15,08,19,12.70
2016,09,15,08,20,12.70
2016,09,15,08,21,12.70
2016,09,15,08,22,12.70
2016,09,15,08,23,12.70
2016,09,15,08,24,12.60
2016,09,15,08,25,12.60
2016,09,15,08,26,12.60
2016,09,15,08,27,12.60
2016,09,15,08,28,12.60
2016,09,15,08,29,12.60
2016,09,15,08,30,12.60
2016,09,15,08,31,12.70
2016,09,15,08,32,12.70
2016,09,15,08,33,12.70
2016,09,15,08,34,12.80
2016,09,15,08,35,12.80
2016,09,15,08,36,12.90
2016,09,15,08,37,13.00
2016,09,15,08,38,13.10
2016,09,15,08,39,13.10
2016,09,15,08,40,13.20
2016,09,15,08,41,13.30
2016,09,15,08,42,13.30
2016,09,15,08,43,13.40
2016,09,15,08,44,13.40
2016,09,15,08,45,13.40
2016,09,15,08,46,13.40
2016,09,15,08,47,13.40
2016,09,15,08,48,13.40
2016,09,15,08,49,13.50
2016,09,15,08,50,13.50
2016,09,15,08,51,13.50
2016,09,15,08,52,13.60
2016,09,15,08,53,13.60
2016,09,15,08,54,13.60
2016,09,15,08,55,13.70
2016,09,15,08,56,13.80
2016,09,15,08,57,13.80
2016,09,15,08,58,13.90
2016,09,15,08,59,13.90
2016,09,15,09,00,13.90
2016,09,15,09,01,14.00
2016,09,15,09,02,14.00
2016,09,15,09,03,14.10
2016,09,15,09,04,14.20
2016,09,15,09,05,14.20
2016,09,15,09,06,14.30
2016,09,15,09,07,14.40
2016,09,15,09,08,14.40
2016,09,15,09,09,14.40
2016,09,15,09,10,14.50
2016,09,15,09,11,14.60
2016,09,15,09,12,14.60
2016,09,15,09,13,14.70
2016,09,15,09,14,14.70
2016,09,15,09,15,14.70
2016,09,15,09,16,14.70
2016,09,15,09,17,14.70
2016,09,15,09,18,14.80
2016,09,15,09,19,14.80
2016,09,15,09,20,14.80
2016,09,15,09,21,14.90
2016,09,15,09,22,14.90
2016,09,15,09,23,15.00
2016,09,15,09,24,15.00
2016,09,15,09,25,15.00
2016,09,15,09,26,15.00
2016,09,15,09,27,15.00
2016,09,15,09,28,15.10
2016,09,15,09,29,15.10
2016,09,15,09,30,15.10
2016,09,15,09,31,15.10
2016,09,15,09,32,15.10
2016,09,15,09,33,15.10
2016,09,15,09,34,15.10
2016,09,15,09,35,15.10
2016,09,15,09,36,15.20
2016,09,15,09,37,15.20
2016,09,15,09,38,15.20
2016,09,15,09,39,15.20
2016,09,15,09,40,15.20
2016,09,15,09,41,15.20
2016,09,15,09,42,15.20
2016,09,15,09,43,15.20
2016,09,15,09,44,15.20
2016,09,15,09,45,15.20
2016,09,15,09,46,15.30
2016,09,15,09,47,15.30
2016,09,15,09,48,15.30
2016,09,15,09,49,15.40
2016,09,15,09,50,15.40
2016,09,15,09,51,15.50
2016,09,15,09,52,15.60
2016,09,15,09,53,15.60
2016,09,15,09,54,15.70
2016,09,15,09,55,15.80
2016,09,15,09,56,15.90
2016,09,15,09,57,16.00
2016,09,15,09,58,16.10
2016,09,15,09,59,16.10
2016,09,15,10,00,16.20
2016,09,15,10,01,16.20
2016,09,15,10,02,16.20
2016,09,15,10,03,16.20
2016,09,15,10,04,16.20
2016,09,15,10,05,16.20
2016,09,15,10,06,16.20
2016,09,15,10,07,16.30
2016,09,15,10,08,16.30
2016,09,15,10,09,16.20
2016,09,15,10,10,16.20
2016,09,15,10,11,16.20
2016,09,15,10,12,16.20
2016,09,15,10,13,16.20
2016,09,15,10,14,16.20
2016,09,15,10,15,16.20
2016,09,15,10,16,16.10
2016,09,15,10,17,16.00
2016,09,15,10,18,15.90
2016,09,15,10,19,15.80
2016,09,15,10,20,15.80
2016,09,15,10,21,15.70
2016,09,15,10,22,15.60
2016,09,15,10,23,15.50
2016,09,15,10,24,15.50
2016,09,15,10,25,15.40
2016,09,15,10,26,15.30
2016,09,15,10,27,15.20
2016,09,15,10,28,15.10
2016,09,15,10,29,15.10
2016,09,15,10,30,15.10
2016,09,15,10,31,15.10
2016,09,15,10,32,15.10
2016,09,15,10,33,15.00
2016,09,15,10,34,14.90
2016,09,15,10,35,14.80
2016,09,15,10,36,14.80
2016,09,15,10,37,14.80
2016,09,15,10,38,14.80
2016,09,15,10,39,14.80
2016,09,15,10,40,14.80
2016,09,15,10,41,14.90
2016,09,15,10,42,14.90
2016,09,15,10,43,15.00
2016,09,15,10,44,15.00
2016,09,15,10,45,15.10
2016,09,15,10,46,15.10
2016,09,15,10,47,15.00
2016,09,15,10,48,15.00
2016,09,15,10,49,15.00
2016,09,15,10,50,14.90
2016,09,15,10,51,15.00
2016,09,15,10,52,15.00
2016,09,15,10,53,15.10
2016,09,15,10,54,15.00
2016,09,15,10,55,15.00
2016,09,15,10,56,15.10
2016,09,15,10,57,15.10
2016,09,15,10,58,15.20
2016,09,15,10,59,15.20
2016,09,15,11,00,15.30
2016,09,15,11,01,15.40
2016,09,15,11,02,15.50
2016,09,15,11,03,15.60
2016,09,15,11,04,15.50
2016,09,15,11,05,15.50
2016,09,15,11,06,15.50
2016,09,15,11,07,15.50
2016,09,15,11,08,15.50
2016,09,15,11,09,15.50
2016,09,15,11,10,15.50
2016,09,15,11,11,15.50
2016,09,15,11,12,15.50
2016,09,15,11,13,15.50
2016,09,15,11,14,15.60
2016,09,15,11,15,15.60
2016,09,15,11,16,15.60
2016,09,15,11,17,15.60
2016,09,15,11,18,15.50
2016,09,15,11,19,15.40
2016,09,15,11,20,15.40
2016,09,15,11,21,15.30
2016,09,15,11,22,15.20
2016,09,15,11,23,15.10
2016,09,15,11,24,15.10
2016,09,15,11,25,15.10
2016,09,15,11,26,15.10
2016,09,15,11,27,15.00
2016,09,15,11,28,15.00
2016,09,15,11,29,14.90
2016,09,15,11,30,14.90
2016,09,15,11,31,14.90
2016,09,15,11,32,14.90
2016,09,15,11,33,15.00
2016,09,15,11,34,15.00
2016,09,15,11,35,15.10
2016,09,15,11,36,15.10
2016,09,15,11,37,15.10
2016,09,15,11,38,15.10
2016,09,15,11,39,15.10
2016,09,15,11,40,15.20
2016,09,15,11,41,15.30
2016,09,15,11,42,15.30
2016,09,15,11,43,15.30
2016,09,15,11,44,15.30
2016,09,15,11,45,15.40
2016,09,15,11,46,15.40
2016,09,15,11,47,15.40
2016,09,15,11,48,15.40
2016,09,15,11,49,15.40
2016,09,15,11,50,15.40
2016,09,15,11,51,15.40
2016,09,15,11,52,15.40
2016,09,15,11,53,15.30
2016,09,15,11,54,15.30
2016,09,15,11,55,15.20
2016,09,15,11,56,15.20
2016,09,15,11,57,15.30
2016,09,15,11,58,15.30
2016,09,15,11,59,15.30
2016,09,15,12,00,15.30
2016,09,15,12,01,15.30
2016,09,15,12,02,15.40
2016,09,15,12,03,15.40
2016,09,15,12,04,15.50
2016,09,15,12,05,15.50
2016,09,15,12,06,15.50
2016,09,15,12,07,15.50
2016,09,15,12,08,15.50
2016,09,15,12,09,15.50
2016,09,15,12,10,15.50
2016,09,15,12,11,15.40
2016,09,15,12,12,15.50
2016,09,15,12,13,15.50
2016,09,15,12,14,15.50
2016,09,15,12,15,15.50
2016,09,15,12,16,15.70
2016,09,15,12,17,15.70
2016,09,15,12,18,15.70
2016,09,15,12,19,15.80
2016,09,15,12,20,15.90
2016,09,15,12,21,15.90
2016,09,15,12,22,15.80
2016,09,15,12,23,15.80
2016,09,15,12,24,15.70
2016,09,15,12,25,15.70
2016,09,15,12,26,15.70
2016,09,15,12,27,15.70
2016,09,15,12,28,15.70
2016,09,15,12,29,15.80
2016,09,15,12,30,15.80
2016,09,15,12,31,15.70
2016,09,15,12,32,15.70
2016,09,15,12,33,15.70
2016,09,15,12,34,15.70
2016,09,15,12,35,15.70
2016,09,15,12,36,15.70
2016,09,15,12,37,15.60
2016,09,15,12,38,15.60
2016,09,15,12,39,15.50
2016,09,15,12,40,15.40
2016,09,15,12,41,15.30
2016,09,15,12,42,15.40
2016,09,15,12,43,15.50
2016,09,15,12,44,15.60
2016,09,15,12,45,15.70
2016,09,15,12,46,15.70
2016,09,15,12,47,15.70
2016,09,15,12,48,15.60
2016,09,15,12,49,15.50
2016,09,15,12,50,15.50
2016,09,15,12,51,15.50
2016,09,15,12,52,15.50
2016,09,15,12,53,15.60
2016,09,15,12,54,15.70
2016,09,15,12,55,15.70
2016,09,15,12,56,15.80
2016,09,15,12,57,15.80
2016,09,15,12,58,15.70
2016,09,15,12,59,15.70
2016,09,15,13,00,15.60
2016,09,15,13,01,15.50
2016,09,15,13,02,15.40
2016,09,15,13,03,15.30
2016,09,15,13,04,15.30
2016,09,15,13,05,15.20
2016,09,15,13,06,15.20
2016,09,15,13,07,15.20
2016,09,15,13,08,15.20
2016,09,15,13,09,15.20
2016,09,15,13,10,15.20
2016,09,15,13,11,15.20
2016,09,15,13,12,15.30
2016,09,15,13,13,15.30
2016,09,15,13,14,15.40
2016,09,15,13,15,15.40
2016,09,15,13,16,15.50
2016,09,15,13,17,15.60
2016,09,15,13,18,15.60
2016,09,15,13,19,15.70
2016,09,15,13,20,15.80
2016,09,15,13,21,15.80
2016,09,15,13,22,15.80
2016,09,15,13,23,15.90
2016,09,15,13,24,15.80
2016,09,15,13,25,15.90
2016,09,15,13,26,15.90
2016,09,15,13,27,15.90
2016,09,15,13,28,15.90
2016,09,15,13,29,15.90
2016,09,15,13,30,15.90
2016,09,15,13,31,15.90
2016,09,15,13,32,15.90
2016,09,15,13,33,15.80
2016,09,15,13,34,15.80
2016,09,15,13,35,15.80
2016,09,15,13,36,15.80
2016,09,15,13,37,15.70
2016,09,15,13,38,15.70
2016,09,15,13,39,15.60
2016,09,15,13,40,15.60
2016,09,15,13,41,15.70
2016,09,15,13,42,15.70
2016,09,15,13,43,15.70
2016,09,15,13,44,15.70
2016,09,15,13,45,15.70
2016,09,15,13,46,15.70
2016,09,15,13,47,15.80
2016,09,15,13,48,15.90
2016,09,15,13,49,15.90
2016,09,15,13,50,15.90
2016,09,15,13,51,15.90
2016,09,15,13,52,15.90
2016,09,15,13,53,15.80
2016,09,15,13,54,15.80
2016,09,15,13,55,15.70
2016,09,15,13,56,15.70
2016,09,15,13,57,15.80
2016,09,15,13,58,15.80
2016,09,15,13,59,15.70
2016,09,15,14,00,15.70
2016,09,15,14,01,15.70
2016,09,15,14,02,15.60
2016,09,15,14,03,15.60
2016,09,15,14,04,15.60
2016,09,15,14,05,15.60
2016,09,15,14,06,15.70
2016,09,15,14,07,15.70
2016,09,15,14,08,15.70
2016,09,15,14,09,15.70
2016,09,15,14,10,15.70
2016,09,15,14,11,15.80
2016,09,15,14,12,15.80
2016,09,15,14,13,15.90
2016,09,15,14,14,15.90
2016,09,15,14,15,15.90
2016,09,15,14,16,15.80
2016,09,15,14,17,15.80
2016,09,15,14,18,15.80
2016,09,15,14,19,15.80
2016,09,15,14,20,15.90
2016,09,15,14,21,15.90
2016,09,15,14,22,16.00
2016,09,15,14,23,16.10
2016,09,15,14,24,16.20
2016,09,15,14,25,16.30
2016,09,15,14,26,16.20
2016,09,15,14,27,16.20
2016,09,15,14,28,16.20
2016,09,15,14,29,16.30
2016,09,15,14,30,16.20
2016,09,15,14,31,16.20
2016,09,15,14,32,16.20
2016,09,15,14,33,16.30
2016,09,15,14,34,16.30
2016,09,15,14,35,16.40
2016,09,15,14,36,16.50
2016,09,15,14,37,16.60
2016,09,15,14,38,16.50
2016,09,15,14,39,16.40
2016,09,15,14,40,16.30
2016,09,15,14,41,16.20
2016,09,15,14,42,16.20
2016,09,15,14,43,16.20
2016,09,15,14,44,16.20
2016,09,15,14,45,16.20
2016,09,15,14,46,16.10
2016,09,15,14,47,16.10
2016,09,15,14,48,16.00
2016,09,15,14,49,16.10
2016,09,15,14,50,16.00
2016,09,15,14,51,16.10
2016,09,15,14,52,16.00
2016,09,15,14,53,16.00
2016,09,15,14,54,16.10
2016,09,15,14,55,16.20
2016,09,15,14,56,16.30
2016,09,15,14,57,16.30
2016,09,15,14,58,16.40
2016,09,15,14,59,16.40
2016,09,15,15,00,16.40
2016,09,15,15,01,16.60
2016,09,15,15,02,16.70
2016,09,15,15,03,16.70
2016,09,15,15,04,16.70
2016,09,15,15,05,16.60
2016,09,15,15,06,16.60
2016,09,15,15,07,16.60
2016,09,15,15,08,16.60
2016,09,15,15,09,16.60
2016,09,15,15,10,16.60
2016,09,15,15,11,16.70
2016,09,15,15,12,16.70
2016,09,15,15,13,16.70
2016,09,15,15,14,16.80
2016,09,15,15,15,16.80
2016,09,15,15,16,16.90
2016,09,15,15,17,17.00
2016,09,15,15,18,17.00
2016,09,15,15,19,16.90
2016,09,15,15,20,16.90
2016,09,15,15,21,17.00
2016,09,15,15,22,17.10
2016,09,15,15,23,17.20
2016,09,15,15,24,17.30
2016,09,15,15,25,17.40
2016,09,15,15,26,17.50
2016,09,15,15,27,17.50
2016,09,15,15,28,17.40
2016,09,15,15,29,17.30
2016,09,15,15,30,17.30
2016,09,15,15,31,17.20
2016,09,15,15,32,17.20
2016,09,15,15,33,17.10
2016,09,15,15,34,17.10
2016,09,15,15,35,17.00
2016,09,15,15,36,17.10
2016,09,15,15,37,17.20
2016,09,15,15,38,17.10
2016,09,15,15,39,17.10
2016,09,15,15,40,17.10
2016,09,15,15,41,17.10
2016,09,15,15,42,17.10
2016,09,15,15,43,17.10
2016,09,15,15,44,17.10
2016,09,15,15,45,17.10
2016,09,15,15,46,17.00
2016,09,15,15,47,16.90
2016,09,15,15,48,16.80
2016,09,15,15,49,16.70
2016,09,15,15,50,16.70
2016,09,15,15,51,16.70
2016,09,15,15,52,16.80
2016,09,15,15,53,16.70
2016,09,15,15,54,16.70
2016,09,15,15,55,16.70
2016,09,15,15,56,16.70
2016,09,15,15,57,16.70
2016,09,15,15,58,16.60
2016,09,15,15,59,16.60
2016,09,15,16,00,16.60
2016,09,15,16,01,16.60
2016,09,15,16,02,16.60
2016,09,15,16,03,16.60
2016,09,15,16,04,16.70
2016,09,15,16,05,16.60
2016,09,15,16,06,16.70
2016,09,15,16,07,16.70
2016,09,15,16,08,16.80
2016,09,15,16,09,16.90
2016,09,15,16,10,16.90
2016,09,15,16,11,16.90
2016,09,15,16,12,16.90
2016,09,15,16,13,17.00
2016,09,15,16,14,17.10
2016,09,15,16,15,17.10
2016,09,15,16,16,17.10
2016,09,15,16,17,17.10
2016,09,15,16,18,17.10
2016,09,15,16,19,17.00
2016,09,15,16,20,17.10
2016,09,15,16,21,17.10
2016,09,15,16,22,17.10
2016,09,15,16,23,17.10
2016,09,15,16,24,17.20
2016,09,15,16,25,17.20
2016,09,15,16,26,17.20
2016,09,15,16,27,17.20
2016,09,15,16,28,17.20
2016,09,15,16,29,17.10
2016,09,15,16,30,17.10
2016,09,15,16,31,17.10
2016,09,15,16,32,17.10
2016,09,15,16,33,17.10
2016,09,15,16,34,17.10
2016,09,15,16,35,17.10
2016,09,15,16,36,17.10
2016,09,15,16,37,17.10
2016,09,15,16,38,17.10
2016,09,15,16,39,17.20
2016,09,15,16,40,17.30
2016,09,15,16,41,17.40
2016,09,15,16,42,17.40
2016,09,15,16,43,17.60
2016,09,15,16,44,17.70
2016,09,15,16,45,17.80
2016,09,15,16,46,17.80
2016,09,15,16,47,17.80
2016,09,15,16,48,17.90
2016,09,15,16,49,18.00
2016,09,15,16,50,18.10
2016,09,15,16,51,18.20
2016,09,15,16,52,18.20
2016,09,15,16,53,18.30
2016,09,15,16,54,18.30
2016,09,15,16,55,18.30
2016,09,15,16,56,18.30
2016,09,15,16,57,18.30
2016,09,15,16,58,18.40
2016,09,15,16,59,18.40
2016,09,15,17,00,18.40
2016,09,15,17,01,18.40
2016,09,15,17,02,18.30
2016,09,15,17,03,18.30
2016,09,15,17,04,18.30
2016,09,15,17,05,18.40
2016,09,15,17,06,18.40
2016,09,15,17,07,18.40
2016,09,15,17,08,18.40
2016,09,15,17,09,18.40
2016,09,15,17,10,18.40
2016,09,15,17,11,18.40
2016,09,15,17,12,18.40
2016,09,15,17,13,18.40
2016,09,15,17,14,18.40
2016,09,15,17,15,18.40
2016,09,15,17,16,18.40
2016,09,15,17,17,18.40
2016,09,15,17,18,18.30
2016,09,15,17,19,18.30
2016,09,15,17,20,18.40
2016,09,15,17,21,18.40
2016,09,15,17,22,18.40
2016,09,15,17,23,18.50
2016,09,15,17,24,18.60
2016,09,15,17,25,18.60